Location: Hamburg
(53.5500°N, 10.0000°E)
Time: 01:54:53
(UTC+02:00)

Vanguard 1 Rocket - Visible Passes

Search period start: 25 April 2014 00:00
Search period end: 05 May 2014 00:00
Orbit: 650 x 4230 km, 34.3° (Epoch: 22 April)

Date Brightness Start Highest point End Pass type
(mag) Time Alt. Az. Time Alt. Az. Time Alt. Az.
26 Apr 9.2 04:29:14 10° SSW 04:29:14 10° SSW 04:29:39 10° SSW visible
27 Apr 10.5 23:35:30 10° SSW 23:38:39 14° S 23:38:39 14° S visible
28 Apr 10.3 22:24:54 10° S 22:32:28 15° SSE 22:33:25 15° SSE visible
29 Apr 10.6 00:49:02 10° SW 00:50:54 13° SW 00:50:54 13° SW visible
29 Apr 10.5 21:17:01 10° SSE 21:21:06 11° SSE 21:24:43 10° SE visible
29 Apr 10.0 23:36:43 10° SSW 23:45:39 21° S 23:45:39 21° S visible
30 Apr 10.0 22:25:00 10° SSW 22:35:57 20° SSE 22:40:20 16° SE visible
01 May 10.0 00:51:18 10° SW 00:57:48 21° SSW 00:57:48 21° SSW visible
01 May 10.4 21:14:35 10° S 21:24:28 16° SSE 21:32:00 10° ESE visible
01 May 9.7 23:38:25 10° SW 23:50:41 25° S 23:52:20 25° SSE visible
02 May 10.3 02:07:10 10° WSW 02:09:47 15° SW 02:09:47 15° SW visible
02 May 10.1 22:25:57 10° SSW 22:39:23 24° SSE 22:46:42 14° SE visible
03 May 9.6 00:53:47 10° SW 01:04:07 26° SSW 01:04:07 26° SSW visible
03 May 10.4 21:14:24 10° SSW 21:27:46 21° SSE 21:37:15 10° ESE visible
03 May 9.6 23:40:26 10° SW 23:54:10 29° S 23:58:15 24° SSE visible
04 May 9.9 02:10:12 10° WSW 02:15:39 19° SW 02:15:39 19° SW visible
04 May 10.2 22:27:23 10° SW 22:42:47 28° SSE 22:52:09 11° ESE visible
